METEOR 1-24

Satellite information

Favourite Embed

Satellite Type and Status

PAYLOADIN ORBIT

Key statistics

Satellite METEOR 1-24 at a glance.

Uptime

17987

Days in orbit

Revolutions

≈ 14.1

Per day

Orbit

LEO

Low Earth Orbit

Inclination

81.3

Latest

Satellite identification and parameters

Extended collection of information and parameters for METEOR 1-24.

Object identification

Identified? True

Debris? False

Object name: METEOR 1-24

International designator: 1976-032A

Object number (NORAD): 8799

Object ID (CCSDS): 8799

Country: COMMONWEALTH OF INDEPENDENT STATES (CIS)

Current information (Y/N): Y

RCS size: LARGE

Orbital parameters

Period: 101.995 minutes

Inclination: 81.254 deg

SMA: 7231.218 km

Apoapsis: 878.512 km

Periapsis: 827.655 km

RAAN: 206.2521 deg

Eccentricy: 0.0035165

Argument of periapsis: 117.9554 deg

Mean anomaly: 242.5184 deg

Mean motion: 14.11840181 rev/day

Mean motion (dot): -0.00000018 rev/day2

B* drag term: -0.000016875 1/REarth

Two-line elements (TLE)

Creation date: July 5, 2025, 5:45 p.m.

Reference frame: TEME

Reference center: EARTH

Epoch: July 5, 2025, 1:09 p.m. UTC

TLE line 0: 0 METEOR 1-24

TLE line 1: 1 08799U 76032A 25186.54839157 -.00000018 00000-0 -16875-4 0 9997

TLE line 2: 2 08799 81.2540 206.2521 0035165 117.9554 242.5184 14.11840181535069

Live tracking on map

Real-time ground track for satellite METEOR 1-24.

In-orbit conjunctions

A list of the most updated potential collisions computed for object METEOR 1-24.

Target Orbit TCA Probability of collision Miss distance Type
FENGYUN 1C DEB SSO 2025-05-13 01:27:13 0.000512839 130.0 (m) DEBRIS
FENGYUN 1C DEB SSO 2024-11-19 18:54:40 0.0006761339 180.0 (m) DEBRIS
CZ-6A DEB LEO 2024-11-05 23:13:30 0.0003249832 459.0 (m) DEBRIS
FENGYUN 1C DEB SSO 2024-10-15 22:52:45 0.0001069729 766.0 (m) DEBRIS
FENGYUN 1C DEB SSO 2024-09-19 18:27:48 0.001079147 128.0 (m) DEBRIS

Associated space launch

The Meteor-1 series was the first series of Soviet meteorological satellites.

METEOR 1-24 was lifted into orbit during the mission ‘Vostok 8A92M | Meteor-1 24 (37L)’, on board a Vostok 8A92M space rocket.

The launch took place on April 7, 1976, 1:05 p.m. from 41/1.

For more information about the launch, click the button.

Launch to space Vostok 8A92M | Meteor-1 24 (37L)
Vostok 8A92M | Meteor-1 24 (37L)

Agency: N/A

Status: Launch Successful

Launch date: April 7, 1976, 1:05 p.m. UTC

Rocket: Vostok 8A92M

Launch pad: 41/1

Location: Plesetsk Cosmodrome, Russian Federation

...

Latest news about this satellite

There are no fresh news available about this satellite. Check back as we update our databases every day.


Newsletter sign-up

Weekly statistics, charts and insights to help you stay on top of the space industry.